Regional Weather Roundup
Issued by NWS Kansas City/Pleasant Hill, MO

Home | Current Version | Previous Version | Text Only | Print | Product List | Glossary On
Versions: 1 2 3 4 5 6 7 8 9 10 11 12 13 14 15 16 17 18 19 20 21 22 23 24 25 26 27 28
000
ASUS43 KEAX 231210
RWREAX

WEATHER ROUNDUP FOR EASTERN KANSAS AND NORTHWEST MISSOURI
NATIONAL WEATHER SERVICE KANSAS CITY/PLEASANT HILL MO
700 AM CDT TUE MAY 23 2017

KSZ040-057-103>105-MOZ028-029-037-043-231300-
...KANSAS CITY METROPOLITAN AREA...

CITY           SKY/WX    TMP DP  RH WIND       PRES   REMARKS
K.C. INTL      CLOUDY    54  52  93 NW10      29.88R
6HR MIN TEMP:  52; 6HR MAX TEMP:  56;

K.C. DOWNTOWN  CLOUDY    58  54  86 N8        29.87R
6HR MIN TEMP:  56; 6HR MAX TEMP:  58;

LEES SUMMIT    CLOUDY    56  56 100 NW6       29.86S FOG
6HR MIN TEMP:  55; 6HR MAX TEMP:  57;

OLATHE - IXD   CLOUDY    55  53  93 NW13      29.89R
6HR MIN TEMP:  55; 6HR MAX TEMP:  56;

OLATHE - OJC   CLOUDY    55  55 100 N12G18    29.87R
6HR MIN TEMP:  54; 6HR MAX TEMP:  55;

LAWRENCE       LGT RAIN  54  53  97 NW10      29.89R

$$

MOZ001>008-011>017-020>025-030>033-038>040-044>046-053-054-231300-
...NORTHERN AND CENTRAL MISSOURI...

CITY           SKY/WX    TMP DP  RH WIND       PRES   REMARKS
ST. JOSEPH     CLOUDY    53  51  93 NW10      29.90R
6HR MIN TEMP:  53; 6HR MAX TEMP:  57;

MOSBY          CLOUDY    55  55 100 NW7       29.86R
WARRENSBURG    CLOUDY    55  54  94 CALM      29.85S FOG
WHITEMAN AFB   CLOUDY    56  56 100 NW6       29.83S FOG
6HR MIN TEMP:  54; 6HR MAX TEMP:  56; 6HR PCP: TRACE;

CLINTON        MOSUNNY   55  54  94 CALM      29.85S
SEDALIA        CLOUDY    56  56 100 NW3       29.85R
6HR MIN TEMP:  56; 6HR MAX TEMP:  58; 6HR PCP:  0.07;

WARSAW         NOT AVBL
CHILLICOTHE      N/A     57  55  93 CALM      29.86R
6HR MIN TEMP:  54; 6HR MAX TEMP:  57;

KIRKSVILLE     CLOUDY    55  54  96 W8        29.84R
6HR MIN TEMP:  55; 6HR MAX TEMP:  57;


$$

MOZ041-047>049-056>058-063>065-088>090-097-231300-
...EASTERN AND SOUTHERN MISSOURI...

CITY           SKY/WX    TMP DP  RH WIND       PRES   REMARKS
ST. LOUIS INTL CLOUDY    63  56  78 SE8       29.82S
6HR MIN TEMP:  63; 6HR MAX TEMP:  66;

SPIRIT OF STL  CLOUDY    61  58  90 CALM      29.81S
COLUMBIA       CLOUDY    57  56  96 NE3       29.82S
JEFFERSON CITY LGT RAIN  59  56  89 CALM      29.82S
ROLLA          LGT RAIN  57  55  93 W6        29.82R
OSAGE BEACH    RAIN      57  56  96 NE3       29.84S FOG
SPRINGFIELD    CLOUDY    59  57  93 SW3       29.84R
BRANSON        LGT RAIN  57  57 100 W3        29.86R
JOPLIN         CLOUDY    60  59  96 W6        29.86S
WEST PLAINS    CLOUDY    59  52  77 SW3       29.84S

$$

IAZ060-094-KSZ022-034>040-054-083-096-NEZ052-066-093-231300-
...KANSAS...SOUTHEAST NEBRASKA AND IOWA...

CITY           SKY/WX    TMP DP  RH WIND       PRES   REMARKS
TOPEKA         CLOUDY    54  51  90 NW9       29.91R
6HR MIN TEMP:  53; 6HR MAX TEMP:  56; 6HR PCP: TRACE;

MANHATTAN      CLOUDY    53  50  89 CALM      29.95R
EMPORIA        CLOUDY    54  50  86 N12       29.91S
CHANUTE        LGT RAIN  57  54  89 N9        29.88R
WICHITA        MOCLDY    54  51  90 N13       29.96R
OMAHA          PTCLDY    50  43  77 NW10      29.91S
LINCOLN        CLEAR     50  44  80 NW8       29.95S
FALLS CITY     PTCLDY    51  48  89 NW8       29.91R
LAMONI         CLOUDY    51  49  92 NW9       29.86R
DES MOINES     CLOUDY    52  49  89 NW7       29.85R

$$





USA.gov is the U.S. government's official web portal to all federal, state and local government web resources and services.